Louisville, KY

3:14 PM EDT on August 24, 2016 (GMT -0400)
Louisville International-Standiford

Weather History for KSDF - August, 2014

Change the Weather History Date:

Saturday, August 9, 2014

  Actual Average Record
Temperature  
Mean Temperature 79 °F 79 °F  
Max Temperature 85 °F 89 °F 102 °F (2007)
Min Temperature 72 °F 69 °F 53 °F (1989)
Degree Days  
Heating Degree Days 0 0  
Month to date heating degree days 0 0  
Since 1 June heating degree days 0 5  
Since 1 July heating degree days 0 0  
Cooling Degree Days 14 14  
Month to date cooling degree days 110 126  
Year to date cooling degree days 1078 1067  
Since 1 June cooling degree days 844 893  
Growing Degree Days 28 (Base 50)    
Moisture  
Dew Point 71 °F    
Average Humidity 79    
Maximum Humidity 93    
Minimum Humidity 65    
Precipitation  
Precipitation 0.39 in 0.12 in 2.40 in (1967)
Month to date precipitation 2.48 1.08  
Year to date precipitation 27.25 28.97  
Snow  
Snow 0.00 in 0.00 in - ()
Month to date snowfall 0.0 0.0  
Since 1 June snowfall 0.0 0.0  
Since 1 July snowfall 0.0 0.0  
Snow Depth 0.00 in    
Sea Level Pressure  
Sea Level Pressure 29.97 in    
Wind  
Wind Speed 6 mph (East)    
Max Wind Speed 13 mph    
Max Gust Speed 15 mph    
Visibility 7 miles    
Events Rain    
T = Trace of Precipitation, MM = Missing Value Source: NWS Daily Summary

Daily Weather History Graph

Daily Weather History Graph

Search for Another Location

Airport or City:

Trip Planner

Search our weather history database for the weather conditions in past years. The results will help you decide how hot, cold, wet, or windy it might be!

Date:

Astronomy

Aug. 09, 2014 Rise Set
Actual Time 6:52 AM EDT 8:43 PM EDT
Civil Twilight 6:23 AM EDT 9:12 PM EDT
Nautical Twilight 5:49 AM EDT 9:46 PM EDT
Astronomical Twilight 5:11 AM EDT 10:23 PM EDT
Moon 7:45 PM EDT (8/9) 5:32 AM EDT (8/9)
Length of Visible Light 14h 48m
Length of Day
13h 51m
Waxing Gibbous, 98% of the Moon is Illuminated
Aug 9
Waxing Gibbous
Aug 10
Full
Aug 17
Last Quarter
Aug 25
New
Sep 2
First Quarter

Hourly Weather History & Observations

Time (EDT) Temp. Heat Index Dew Point Humidity Pressure Visibility Wind Dir Wind Speed Gust Speed Precip Events Conditions
12:45 AM 73.0 °F - 69.1 °F 87% 29.98 in 10.0 mi East 6.9 mph - N/A   Overcast
12:56 AM 73.0 °F - 69.1 °F 87% 29.97 in 10.0 mi ENE 6.9 mph - N/A   Overcast
1:41 AM 73.0 °F - 69.1 °F 87% 29.98 in 10.0 mi East 6.9 mph - N/A   Overcast
1:56 AM 73.0 °F - 69.1 °F 87% 29.96 in 9.0 mi East 6.9 mph - N/A   Overcast
2:56 AM 73.0 °F - 69.1 °F 87% 29.95 in 9.0 mi East 4.6 mph - N/A   Overcast
3:56 AM 73.0 °F - 69.1 °F 87% 29.96 in 9.0 mi ESE 4.6 mph - N/A   Overcast
4:14 AM 73.0 °F - 69.1 °F 87% 29.96 in 2.0 mi ESE 6.9 mph - 0.04 in Rain Heavy Rain
4:24 AM 72.0 °F - 69.1 °F 91% 29.96 in 2.0 mi East 6.9 mph - 0.29 in Rain Heavy Rain
4:30 AM 72.0 °F - 70.0 °F 93% 29.96 in 4.0 mi East 6.9 mph - 0.31 in Rain Rain
4:49 AM 72.0 °F - 70.0 °F 93% 29.96 in 6.0 mi East 4.6 mph - 0.33 in Rain Light Rain
4:56 AM 72.0 °F - 70.0 °F 93% 29.95 in 7.0 mi Variable 4.6 mph - 0.33 in Rain Light Rain
5:49 AM 72.0 °F - 70.0 °F 93% 29.97 in 7.0 mi East 4.6 mph - 0.00 in   Mostly Cloudy
5:56 AM 72.0 °F - 70.0 °F 93% 29.96 in 8.0 mi East 4.6 mph - 0.00 in   Overcast
6:39 AM 72.0 °F - 70.0 °F 93% 29.97 in 7.0 mi East 3.5 mph - 0.00 in Rain Light Rain
6:56 AM 72.0 °F - 70.0 °F 93% 29.97 in 6.0 mi East 4.6 mph - 0.00 in Rain Light Rain
7:56 AM 72.0 °F - 70.0 °F 93% 29.98 in 4.0 mi East 4.6 mph - 0.03 in Rain Light Rain
8:56 AM 72.0 °F - 70.0 °F 93% 29.99 in 3.0 mi East 4.6 mph - 0.00 in   Overcast
9:56 AM 73.0 °F - 71.1 °F 93% 29.99 in 4.0 mi East 4.6 mph - N/A   Overcast
10:42 AM 73.0 °F - 71.1 °F 93% 30.00 in 2.0 mi ESE 5.8 mph - 0.01 in Rain Rain
10:56 AM 73.0 °F - 71.1 °F 93% 29.99 in 2.0 mi ESE 5.8 mph - 0.02 in Rain Rain
11:07 AM 73.9 °F - 72.0 °F 93% 30.00 in 3.0 mi SE 4.6 mph - 0.00 in Rain Light Rain
11:56 AM 73.9 °F - 72.0 °F 93% 29.99 in 5.0 mi SSE 8.1 mph - 0.01 in   Overcast
12:28 PM 75.0 °F - 72.0 °F 90% 30.00 in 6.0 mi SE 5.8 mph - N/A   Overcast
12:56 PM 75.9 °F - 72.0 °F 87% 29.99 in 6.0 mi ESE 4.6 mph - N/A   Overcast
1:56 PM 77.0 °F - 72.0 °F 84% 29.98 in 6.0 mi Calm Calm - N/A   Haze
2:04 PM 78.1 °F - 72.0 °F 81% 29.99 in 6.0 mi East 4.6 mph - N/A   Haze
2:42 PM 80.1 °F 84.2 °F 73.0 °F 79% 29.98 in 7.0 mi East 4.6 mph - N/A   Mostly Cloudy
2:56 PM 81.0 °F 85.2 °F 72.0 °F 74% 29.97 in 7.0 mi Variable 3.5 mph - N/A   Mostly Cloudy
2:58 PM 81.0 °F 85.2 °F 72.0 °F 74% 29.98 in 7.0 mi North 3.5 mph - N/A   Mostly Cloudy
3:34 PM 82.0 °F 86.7 °F 72.0 °F 71% 29.97 in 7.0 mi North 4.6 mph - N/A   Mostly Cloudy
3:56 PM 84.9 °F 90.7 °F 72.0 °F 65% 29.94 in 7.0 mi Variable 4.6 mph - N/A   Mostly Cloudy
4:11 PM 82.0 °F 86.3 °F 71.1 °F 69% 29.96 in 7.0 mi North 4.6 mph - N/A   Scattered Clouds
4:18 PM 82.9 °F 87.5 °F 71.1 °F 67% 29.96 in 7.0 mi North 4.6 mph - N/A   Mostly Cloudy
4:56 PM 81.0 °F 85.2 °F 72.0 °F 74% 29.94 in 7.0 mi North 10.4 mph - N/A   Mostly Cloudy
5:56 PM 82.0 °F 86.7 °F 72.0 °F 71% 29.94 in 8.0 mi North 8.1 mph - N/A   Mostly Cloudy
5:58 PM 82.0 °F 86.7 °F 72.0 °F 71% 29.95 in 8.0 mi North 8.1 mph - N/A   Mostly Cloudy
6:56 PM 82.0 °F 86.7 °F 72.0 °F 71% 29.93 in 10.0 mi ENE 8.1 mph - N/A   Mostly Cloudy
7:56 PM 81.0 °F 85.2 °F 72.0 °F 74% 29.94 in 10.0 mi East 8.1 mph - N/A   Partly Cloudy
8:29 PM 80.1 °F 83.8 °F 72.0 °F 76% 29.96 in 10.0 mi ENE 8.1 mph - N/A   Mostly Cloudy
8:56 PM 79.0 °F - 72.0 °F 79% 29.96 in 10.0 mi East 8.1 mph - N/A   Overcast
9:47 PM 79.0 °F - 72.0 °F 79% 29.97 in 10.0 mi East 8.1 mph - N/A   Overcast
9:56 PM 79.0 °F - 72.0 °F 79% 29.96 in 10.0 mi East 6.9 mph - N/A   Overcast
10:56 PM 77.0 °F - 72.0 °F 84% 29.96 in 10.0 mi ESE 9.2 mph - N/A   Mostly Cloudy